Year,Month,Day,Hour,Minute,Value (Times are PST for temperature in C)
2012,08,15,00,00,14.90
2012,08,15,00,01,14.90
2012,08,15,00,02,15.00
2012,08,15,00,03,15.00
2012,08,15,00,04,15.00
2012,08,15,00,05,15.00
2012,08,15,00,06,15.00
2012,08,15,00,07,15.00
2012,08,15,00,08,15.00
2012,08,15,00,09,15.00
2012,08,15,00,10,15.00
2012,08,15,00,11,15.00
2012,08,15,00,12,15.00
2012,08,15,00,13,15.00
2012,08,15,00,14,15.00
2012,08,15,00,15,15.00
2012,08,15,00,16,15.00
2012,08,15,00,17,15.00
2012,08,15,00,18,14.90
2012,08,15,00,19,14.90
2012,08,15,00,20,14.90
2012,08,15,00,21,14.90
2012,08,15,00,22,14.90
2012,08,15,00,23,15.00
2012,08,15,00,24,14.90
2012,08,15,00,25,15.00
2012,08,15,00,26,14.90
2012,08,15,00,27,14.90
2012,08,15,00,28,14.90
2012,08,15,00,29,15.00
2012,08,15,00,30,15.00
2012,08,15,00,31,15.00
2012,08,15,00,32,15.00
2012,08,15,00,33,15.00
2012,08,15,00,34,15.10
2012,08,15,00,35,15.10
2012,08,15,00,36,15.10
2012,08,15,00,37,15.10
2012,08,15,00,38,15.10
2012,08,15,00,39,15.10
2012,08,15,00,40,15.10
2012,08,15,00,41,15.20
2012,08,15,00,42,15.20
2012,08,15,00,43,15.20
2012,08,15,00,44,15.20
2012,08,15,00,45,15.20
2012,08,15,00,46,15.30
2012,08,15,00,47,15.30
2012,08,15,00,48,15.30
2012,08,15,00,49,15.30
2012,08,15,00,50,15.30
2012,08,15,00,51,15.30
2012,08,15,00,52,15.30
2012,08,15,00,53,15.30
2012,08,15,00,54,15.40
2012,08,15,00,55,15.40
2012,08,15,00,56,15.40
2012,08,15,00,57,15.40
2012,08,15,00,58,15.40
2012,08,15,00,59,15.40
2012,08,15,01,00,15.40
2012,08,15,01,01,15.40
2012,08,15,01,02,15.40
2012,08,15,01,03,15.40
2012,08,15,01,04,15.40
2012,08,15,01,05,15.40
2012,08,15,01,06,15.40
2012,08,15,01,07,15.40
2012,08,15,01,08,15.40
2012,08,15,01,09,15.40
2012,08,15,01,10,15.40
2012,08,15,01,11,15.40
2012,08,15,01,12,15.40
2012,08,15,01,13,15.40
2012,08,15,01,14,15.40
2012,08,15,01,15,15.40
2012,08,15,01,16,15.40
2012,08,15,01,17,15.40
2012,08,15,01,18,15.40
2012,08,15,01,19,15.40
2012,08,15,01,20,15.40
2012,08,15,01,21,15.40
2012,08,15,01,22,15.40
2012,08,15,01,23,15.40
2012,08,15,01,24,15.40
2012,08,15,01,25,15.40
2012,08,15,01,26,15.40
2012,08,15,01,27,15.50
2012,08,15,01,28,15.50
2012,08,15,01,29,15.50
2012,08,15,01,30,15.60
2012,08,15,01,31,15.60
2012,08,15,01,32,15.60
2012,08,15,01,33,15.70
2012,08,15,01,34,15.70
2012,08,15,01,35,15.70
2012,08,15,01,36,15.70
2012,08,15,01,37,15.70
2012,08,15,01,38,15.70
2012,08,15,01,39,15.70
2012,08,15,01,40,15.70
2012,08,15,01,41,15.70
2012,08,15,01,42,15.70
2012,08,15,01,43,15.70
2012,08,15,01,44,15.70
2012,08,15,01,45,15.70
2012,08,15,01,46,15.70
2012,08,15,01,47,15.70
2012,08,15,01,48,15.70
2012,08,15,01,49,15.70
2012,08,15,01,50,15.70
2012,08,15,01,51,15.70
2012,08,15,01,52,15.70
2012,08,15,01,53,15.70
2012,08,15,01,54,15.70
2012,08,15,01,55,15.70
2012,08,15,01,56,15.70
2012,08,15,01,57,15.70
2012,08,15,01,58,15.70
2012,08,15,01,59,15.70
2012,08,15,02,00,15.70
2012,08,15,02,01,15.70
2012,08,15,02,02,15.70
2012,08,15,02,03,15.70
2012,08,15,02,04,15.70
2012,08,15,02,05,15.70
2012,08,15,02,06,15.70
2012,08,15,02,07,15.70
2012,08,15,02,08,15.70
2012,08,15,02,09,15.70
2012,08,15,02,10,15.70
2012,08,15,02,11,15.70
2012,08,15,02,12,15.70
2012,08,15,02,13,15.70
2012,08,15,02,14,15.70
2012,08,15,02,15,15.70
2012,08,15,02,16,15.70
2012,08,15,02,17,15.70
2012,08,15,02,18,15.70
2012,08,15,02,19,15.70
2012,08,15,02,20,15.70
2012,08,15,02,21,15.70
2012,08,15,02,22,15.70
2012,08,15,02,23,15.70
2012,08,15,02,24,15.70
2012,08,15,02,25,15.70
2012,08,15,02,26,15.70
2012,08,15,02,27,15.70
2012,08,15,02,28,15.70
2012,08,15,02,29,15.70
2012,08,15,02,30,15.70
2012,08,15,02,31,15.70
2012,08,15,02,32,15.70
2012,08,15,02,33,15.70
2012,08,15,02,34,15.70
2012,08,15,02,35,15.70
2012,08,15,02,36,15.70
2012,08,15,02,37,15.70
2012,08,15,02,38,15.70
2012,08,15,02,39,15.80
2012,08,15,02,40,15.80
2012,08,15,02,41,15.80
2012,08,15,02,42,15.80
2012,08,15,02,43,15.80
2012,08,15,02,44,15.80
2012,08,15,02,45,15.80
2012,08,15,02,46,15.80
2012,08,15,02,47,15.80
2012,08,15,02,48,15.80
2012,08,15,02,49,15.80
2012,08,15,02,50,15.80
2012,08,15,02,51,15.80
2012,08,15,02,52,15.80
2012,08,15,02,53,15.80
2012,08,15,02,54,15.80
2012,08,15,02,55,15.80
2012,08,15,02,56,15.70
2012,08,15,02,57,15.70
2012,08,15,02,58,15.70
2012,08,15,02,59,15.70
2012,08,15,03,00,15.70
2012,08,15,03,01,15.70
2012,08,15,03,02,15.70
2012,08,15,03,03,15.70
2012,08,15,03,04,15.70
2012,08,15,03,05,15.70
2012,08,15,03,06,15.70
2012,08,15,03,07,15.70
2012,08,15,03,08,15.70
2012,08,15,03,09,15.60
2012,08,15,03,10,15.60
2012,08,15,03,11,15.60
2012,08,15,03,12,15.60
2012,08,15,03,13,15.60
2012,08,15,03,14,15.60
2012,08,15,03,15,15.50
2012,08,15,03,16,15.50
2012,08,15,03,17,15.40
2012,08,15,03,18,15.40
2012,08,15,03,19,15.30
2012,08,15,03,20,15.30
2012,08,15,03,21,15.30
2012,08,15,03,22,15.30
2012,08,15,03,23,15.30
2012,08,15,03,24,15.20
2012,08,15,03,25,15.20
2012,08,15,03,26,15.20
2012,08,15,03,27,15.20
2012,08,15,03,28,15.10
2012,08,15,03,29,15.10
2012,08,15,03,30,15.10
2012,08,15,03,31,15.10
2012,08,15,03,32,15.10
2012,08,15,03,33,15.00
2012,08,15,03,34,15.00
2012,08,15,03,35,14.90
2012,08,15,03,36,14.90
2012,08,15,03,37,14.90
2012,08,15,03,38,14.90
2012,08,15,03,39,14.90
2012,08,15,03,40,14.80
2012,08,15,03,41,14.80
2012,08,15,03,42,14.80
2012,08,15,03,43,14.80
2012,08,15,03,44,14.80
2012,08,15,03,45,14.70
2012,08,15,03,46,14.70
2012,08,15,03,47,14.70
2012,08,15,03,48,14.70
2012,08,15,03,49,14.70
2012,08,15,03,50,14.70
2012,08,15,03,51,14.70
2012,08,15,03,52,14.70
2012,08,15,03,53,14.70
2012,08,15,03,54,14.70
2012,08,15,03,55,14.60
2012,08,15,03,56,14.60
2012,08,15,03,57,14.60
2012,08,15,03,58,14.60
2012,08,15,03,59,14.60
2012,08,15,04,00,14.60
2012,08,15,04,01,14.60
2012,08,15,04,02,14.60
2012,08,15,04,03,14.60
2012,08,15,04,04,14.60
2012,08,15,04,05,14.50
2012,08,15,04,06,14.50
2012,08,15,04,07,14.50
2012,08,15,04,08,14.50
2012,08,15,04,09,14.50
2012,08,15,04,10,14.50
2012,08,15,04,11,14.50
2012,08,15,04,12,14.50
2012,08,15,04,13,14.50
2012,08,15,04,14,14.50
2012,08,15,04,15,14.40
2012,08,15,04,16,14.40
2012,08,15,04,17,14.40
2012,08,15,04,18,14.40
2012,08,15,04,19,14.40
2012,08,15,04,20,14.40
2012,08,15,04,21,14.50
2012,08,15,04,22,14.50
2012,08,15,04,23,14.50
2012,08,15,04,24,14.50
2012,08,15,04,25,14.50
2012,08,15,04,26,14.50
2012,08,15,04,27,14.50
2012,08,15,04,28,14.50
2012,08,15,04,29,14.60
2012,08,15,04,30,14.60
2012,08,15,04,31,14.60
2012,08,15,04,32,14.60
2012,08,15,04,33,14.60
2012,08,15,04,34,14.50
2012,08,15,04,35,14.50
2012,08,15,04,36,14.50
2012,08,15,04,37,14.50
2012,08,15,04,38,14.50
2012,08,15,04,39,14.50
2012,08,15,04,40,14.50
2012,08,15,04,41,14.40
2012,08,15,04,42,14.40
2012,08,15,04,43,14.40
2012,08,15,04,44,14.40
2012,08,15,04,45,14.40
2012,08,15,04,46,14.40
2012,08,15,04,47,14.30
2012,08,15,04,48,14.30
2012,08,15,04,49,14.30
2012,08,15,04,50,14.30
2012,08,15,04,51,14.30
2012,08,15,04,52,14.30
2012,08,15,04,53,14.30
2012,08,15,04,54,14.20
2012,08,15,04,55,14.20
2012,08,15,04,56,14.20
2012,08,15,04,57,14.20
2012,08,15,04,58,14.20
2012,08,15,04,59,14.20
2012,08,15,05,00,14.20
2012,08,15,05,01,14.20
2012,08,15,05,02,14.20
2012,08,15,05,03,14.20
2012,08,15,05,04,14.20
2012,08,15,05,05,14.20
2012,08,15,05,06,14.20
2012,08,15,05,07,14.20
2012,08,15,05,08,14.20
2012,08,15,05,09,14.20
2012,08,15,05,10,14.20
2012,08,15,05,11,14.20
2012,08,15,05,12,14.30
2012,08,15,05,13,14.30
2012,08,15,05,14,14.30
2012,08,15,05,15,14.30
2012,08,15,05,16,14.30
2012,08,15,05,17,14.30
2012,08,15,05,18,14.30
2012,08,15,05,19,14.30
2012,08,15,05,20,14.30
2012,08,15,05,21,14.30
2012,08,15,05,22,14.30
2012,08,15,05,23,14.30
2012,08,15,05,24,14.20
2012,08,15,05,25,14.20
2012,08,15,05,26,14.20
2012,08,15,05,27,14.20
2012,08,15,05,28,14.20
2012,08,15,05,29,14.20
2012,08,15,05,30,14.20
2012,08,15,05,31,14.20
2012,08,15,05,32,14.20
2012,08,15,05,33,14.20
2012,08,15,05,34,14.20
2012,08,15,05,35,14.20
2012,08,15,05,36,14.20
2012,08,15,05,37,14.10
2012,08,15,05,38,14.10
2012,08,15,05,39,14.10
2012,08,15,05,40,14.10
2012,08,15,05,41,14.10
2012,08,15,05,42,14.10
2012,08,15,05,43,14.10
2012,08,15,05,44,14.10
2012,08,15,05,45,14.10
2012,08,15,05,46,14.10
2012,08,15,05,47,14.10
2012,08,15,05,48,14.10
2012,08,15,05,49,14.10
2012,08,15,05,50,14.10
2012,08,15,05,51,14.10
2012,08,15,05,52,14.10
2012,08,15,05,53,14.10
2012,08,15,05,54,14.10
2012,08,15,05,55,14.10
2012,08,15,05,56,14.20
2012,08,15,05,57,14.20
2012,08,15,05,58,14.20
2012,08,15,05,59,14.20
2012,08,15,06,00,14.20
2012,08,15,06,01,14.30
2012,08,15,06,02,14.30
2012,08,15,06,03,14.30
2012,08,15,06,04,14.30
2012,08,15,06,05,14.40
2012,08,15,06,06,14.40
2012,08,15,06,07,14.40
2012,08,15,06,08,14.40
2012,08,15,06,09,14.40
2012,08,15,06,10,14.40
2012,08,15,06,11,14.40
2012,08,15,06,12,14.40
2012,08,15,06,13,14.40
2012,08,15,06,14,14.40
2012,08,15,06,15,14.40
2012,08,15,06,16,14.50
2012,08,15,06,17,14.50
2012,08,15,06,18,14.50
2012,08,15,06,19,14.50
2012,08,15,06,20,14.50
2012,08,15,06,21,14.50
2012,08,15,06,22,14.50
2012,08,15,06,23,14.50
2012,08,15,06,24,14.50
2012,08,15,06,25,14.50
2012,08,15,06,26,14.60
2012,08,15,06,27,14.60
2012,08,15,06,28,14.60
2012,08,15,06,29,14.60
2012,08,15,06,30,14.60
2012,08,15,06,31,14.70
2012,08,15,06,32,14.70
2012,08,15,06,33,14.70
2012,08,15,06,34,14.70
2012,08,15,06,35,14.70
2012,08,15,06,36,14.70
2012,08,15,06,37,14.70
2012,08,15,06,38,14.80
2012,08,15,06,39,14.80
2012,08,15,06,40,14.80
2012,08,15,06,41,14.80
2012,08,15,06,42,14.80
2012,08,15,06,43,14.90
2012,08,15,06,44,14.90
2012,08,15,06,45,14.90
2012,08,15,06,46,14.90
2012,08,15,06,47,15.00
2012,08,15,06,48,15.00
2012,08,15,06,49,15.00
2012,08,15,06,50,15.10
2012,08,15,06,51,15.10
2012,08,15,06,52,15.10
2012,08,15,06,53,15.10
2012,08,15,06,54,15.20
2012,08,15,06,55,15.20
2012,08,15,06,56,15.20
2012,08,15,06,57,15.20
2012,08,15,06,58,15.20
2012,08,15,06,59,15.30
2012,08,15,07,00,15.30
2012,08,15,07,01,15.30
2012,08,15,07,02,15.30
2012,08,15,07,03,15.40
2012,08,15,07,04,15.40
2012,08,15,07,05,15.40
2012,08,15,07,06,15.40
2012,08,15,07,07,15.50
2012,08,15,07,08,15.50
2012,08,15,07,09,15.60
2012,08,15,07,10,15.60
2012,08,15,07,11,15.60
2012,08,15,07,12,15.70
2012,08,15,07,13,15.70
2012,08,15,07,14,15.80
2012,08,15,07,15,15.80
2012,08,15,07,16,15.90
2012,08,15,07,17,15.90
2012,08,15,07,18,16.00
2012,08,15,07,19,16.00
2012,08,15,07,20,16.10
2012,08,15,07,21,16.10
2012,08,15,07,22,16.20
2012,08,15,07,23,16.20
2012,08,15,07,24,16.30
2012,08,15,07,25,16.30
2012,08,15,07,26,16.40
2012,08,15,07,27,16.50
2012,08,15,07,28,16.50
2012,08,15,07,29,16.60
2012,08,15,07,30,16.60
2012,08,15,07,31,16.70
2012,08,15,07,32,16.80
2012,08,15,07,33,16.80
2012,08,15,07,34,16.90
2012,08,15,07,35,17.00
2012,08,15,07,36,17.10
2012,08,15,07,37,17.20
2012,08,15,07,38,17.20
2012,08,15,07,39,17.30
2012,08,15,07,40,17.30
2012,08,15,07,41,17.40
2012,08,15,07,42,17.40
2012,08,15,07,43,17.50
2012,08,15,07,44,17.50
2012,08,15,07,45,17.60
2012,08,15,07,46,17.60
2012,08,15,07,47,17.70
2012,08,15,07,48,17.70
2012,08,15,07,49,17.80
2012,08,15,07,50,17.80
2012,08,15,07,51,17.90
2012,08,15,07,52,18.00
2012,08,15,07,53,18.00
2012,08,15,07,54,18.10
2012,08,15,07,55,18.10
2012,08,15,07,56,18.20
2012,08,15,07,57,18.20
2012,08,15,07,58,18.20
2012,08,15,07,59,18.30
2012,08,15,08,00,18.30
2012,08,15,08,01,18.30
2012,08,15,08,02,18.30
2012,08,15,08,03,18.30
2012,08,15,08,04,18.30
2012,08,15,08,05,18.40
2012,08,15,08,06,18.50
2012,08,15,08,07,18.50
2012,08,15,08,08,18.60
2012,08,15,08,09,18.60
2012,08,15,08,10,18.70
2012,08,15,08,11,18.70
2012,08,15,08,12,18.70
2012,08,15,08,13,18.80
2012,08,15,08,14,18.80
2012,08,15,08,15,18.90
2012,08,15,08,16,18.90
2012,08,15,08,17,18.90
2012,08,15,08,18,19.00
2012,08,15,08,19,19.00
2012,08,15,08,20,19.00
2012,08,15,08,21,19.10
2012,08,15,08,22,19.10
2012,08,15,08,23,19.10
2012,08,15,08,24,19.20
2012,08,15,08,25,19.20
2012,08,15,08,26,19.20
2012,08,15,08,27,19.30
2012,08,15,08,28,19.30
2012,08,15,08,29,19.40
2012,08,15,08,30,19.40
2012,08,15,08,31,19.50
2012,08,15,08,32,19.60
2012,08,15,08,33,19.60
2012,08,15,08,34,19.70
2012,08,15,08,35,19.70
2012,08,15,08,36,19.80
2012,08,15,08,37,19.80
2012,08,15,08,38,19.90
2012,08,15,08,39,20.00
2012,08,15,08,40,20.10
2012,08,15,08,41,20.10
2012,08,15,08,42,20.20
2012,08,15,08,43,20.30
2012,08,15,08,44,20.40
2012,08,15,08,45,20.40
2012,08,15,08,46,20.50
2012,08,15,08,47,20.60
2012,08,15,08,48,20.60
2012,08,15,08,49,20.70
2012,08,15,08,50,20.80
2012,08,15,08,51,20.80
2012,08,15,08,52,20.90
2012,08,15,08,53,21.00
2012,08,15,08,54,21.10
2012,08,15,08,55,21.20
2012,08,15,08,56,21.30
2012,08,15,08,57,21.40
2012,08,15,08,58,21.50
2012,08,15,08,59,21.60
2012,08,15,09,00,21.70
2012,08,15,09,01,21.80
2012,08,15,09,02,21.90
2012,08,15,09,03,22.00
2012,08,15,09,04,22.10
2012,08,15,09,05,22.10
2012,08,15,09,06,22.20
2012,08,15,09,07,22.30
2012,08,15,09,08,22.40
2012,08,15,09,09,22.40
2012,08,15,09,10,22.50
2012,08,15,09,11,22.60
2012,08,15,09,12,22.70
2012,08,15,09,13,22.70
2012,08,15,09,14,22.80
2012,08,15,09,15,22.90
2012,08,15,09,16,22.90
2012,08,15,09,17,23.00
2012,08,15,09,18,23.10
2012,08,15,09,19,23.20
2012,08,15,09,20,23.20
2012,08,15,09,21,23.20
2012,08,15,09,22,23.30
2012,08,15,09,23,23.40
2012,08,15,09,24,23.50
2012,08,15,09,25,23.50
2012,08,15,09,26,23.60
2012,08,15,09,27,23.70
2012,08,15,09,28,23.70
2012,08,15,09,29,23.80
2012,08,15,09,30,23.90
2012,08,15,09,31,24.00
2012,08,15,09,32,24.10
2012,08,15,09,33,24.10
2012,08,15,09,34,24.20
2012,08,15,09,35,24.30
2012,08,15,09,36,24.30
2012,08,15,09,37,24.40
2012,08,15,09,38,24.40
2012,08,15,09,39,24.40
2012,08,15,09,40,24.40
2012,08,15,09,41,24.50
2012,08,15,09,42,24.50
2012,08,15,09,43,24.60
2012,08,15,09,44,24.60
2012,08,15,09,45,24.60
2012,08,15,09,46,24.70
2012,08,15,09,47,24.70
2012,08,15,09,48,24.80
2012,08,15,09,49,24.80
2012,08,15,09,50,24.80
2012,08,15,09,51,24.80
2012,08,15,09,52,24.80
2012,08,15,09,53,24.80
2012,08,15,09,54,24.80
2012,08,15,09,55,24.80
2012,08,15,09,56,24.80
2012,08,15,09,57,24.80
2012,08,15,09,58,24.80
2012,08,15,09,59,24.80
2012,08,15,10,00,24.80
2012,08,15,10,01,24.90
2012,08,15,10,02,24.90
2012,08,15,10,03,24.90
2012,08,15,10,04,24.80
2012,08,15,10,05,24.80
2012,08,15,10,06,24.80
2012,08,15,10,07,24.90
2012,08,15,10,08,24.90
2012,08,15,10,09,24.90
2012,08,15,10,10,25.00
2012,08,15,10,11,25.00
2012,08,15,10,12,25.00
2012,08,15,10,13,25.00
2012,08,15,10,14,25.00
2012,08,15,10,15,25.10
2012,08,15,10,16,25.10
2012,08,15,10,17,25.10
2012,08,15,10,18,25.10
2012,08,15,10,19,25.20
2012,08,15,10,20,25.20
2012,08,15,10,21,25.20
2012,08,15,10,22,25.30
2012,08,15,10,23,25.30
2012,08,15,10,24,25.30
2012,08,15,10,25,25.30
2012,08,15,10,26,25.20
2012,08,15,10,27,25.30
2012,08,15,10,28,25.30
2012,08,15,10,29,25.30
2012,08,15,10,30,25.30
2012,08,15,10,31,25.30
2012,08,15,10,32,25.30
2012,08,15,10,33,25.30
2012,08,15,10,34,25.30
2012,08,15,10,35,25.30
2012,08,15,10,36,25.30
2012,08,15,10,37,25.40
2012,08,15,10,38,25.40
2012,08,15,10,39,25.40
2012,08,15,10,40,25.40
2012,08,15,10,41,25.50
2012,08,15,10,42,25.50
2012,08,15,10,43,25.60
2012,08,15,10,44,25.60
2012,08,15,10,45,25.60
2012,08,15,10,46,25.60
2012,08,15,10,47,25.60
2012,08,15,10,48,25.70
2012,08,15,10,49,25.70
2012,08,15,10,50,25.70
2012,08,15,10,51,25.70
2012,08,15,10,52,25.70
2012,08,15,10,53,25.70
2012,08,15,10,54,25.70
2012,08,15,10,55,25.70
2012,08,15,10,56,25.70
2012,08,15,10,57,25.80
2012,08,15,10,58,25.80
2012,08,15,10,59,25.90
2012,08,15,11,00,25.90
2012,08,15,11,01,25.90
2012,08,15,11,02,26.00
2012,08,15,11,03,26.00
2012,08,15,11,04,26.00
2012,08,15,11,05,26.00
2012,08,15,11,06,26.00
2012,08,15,11,07,26.00
2012,08,15,11,08,25.90
2012,08,15,11,09,25.90
2012,08,15,11,10,26.00
2012,08,15,11,11,26.00
2012,08,15,11,12,26.10
2012,08,15,11,13,26.10
2012,08,15,11,14,26.10
2012,08,15,11,15,26.10
2012,08,15,11,16,26.10
2012,08,15,11,17,26.10
2012,08,15,11,18,26.10
2012,08,15,11,19,26.20
2012,08,15,11,20,26.20
2012,08,15,11,21,26.30
2012,08,15,11,22,26.30
2012,08,15,11,23,26.30
2012,08,15,11,24,26.30
2012,08,15,11,25,26.30
2012,08,15,11,26,26.20
2012,08,15,11,27,26.20
2012,08,15,11,28,26.20
2012,08,15,11,29,26.20
2012,08,15,11,30,26.20
2012,08,15,11,31,26.20
2012,08,15,11,32,26.30
2012,08,15,11,33,26.30
2012,08,15,11,34,26.30
2012,08,15,11,35,26.40
2012,08,15,11,36,26.40
2012,08,15,11,37,26.40
2012,08,15,11,38,26.50
2012,08,15,11,39,26.60
2012,08,15,11,40,26.60
2012,08,15,11,41,26.60
2012,08,15,11,42,26.60
2012,08,15,11,43,26.60
2012,08,15,11,44,26.60
2012,08,15,11,45,26.60
2012,08,15,11,46,26.60
2012,08,15,11,47,26.50
2012,08,15,11,48,26.50
2012,08,15,11,49,26.50
2012,08,15,11,50,26.60
2012,08,15,11,51,26.70
2012,08,15,11,52,26.70
2012,08,15,11,53,26.70
2012,08,15,11,54,26.70
2012,08,15,11,55,26.70
2012,08,15,11,56,26.70
2012,08,15,11,57,26.80
2012,08,15,11,58,26.80
2012,08,15,11,59,26.90
2012,08,15,12,00,26.90
2012,08,15,12,01,27.00
2012,08,15,12,02,27.00
2012,08,15,12,03,27.10
2012,08,15,12,04,27.10
2012,08,15,12,05,27.20
2012,08,15,12,06,27.20
2012,08,15,12,07,27.20
2012,08,15,12,08,27.30
2012,08,15,12,09,27.40
2012,08,15,12,10,27.40
2012,08,15,12,11,27.40
2012,08,15,12,12,27.40
2012,08,15,12,13,27.40
2012,08,15,12,14,27.30
2012,08,15,12,15,27.30
2012,08,15,12,16,27.20
2012,08,15,12,17,27.20
2012,08,15,12,18,27.10
2012,08,15,12,19,27.10
2012,08,15,12,20,27.00
2012,08,15,12,21,27.00
2012,08,15,12,22,26.90
2012,08,15,12,23,26.80
2012,08,15,12,24,26.80
2012,08,15,12,25,26.80
2012,08,15,12,26,26.70
2012,08,15,12,27,26.70
2012,08,15,12,28,26.70
2012,08,15,12,29,26.60
2012,08,15,12,30,26.60
2012,08,15,12,31,26.60
2012,08,15,12,32,26.70
2012,08,15,12,33,26.70
2012,08,15,12,34,26.70
2012,08,15,12,35,26.60
2012,08,15,12,36,26.60
2012,08,15,12,37,26.60
2012,08,15,12,38,26.70
2012,08,15,12,39,26.80
2012,08,15,12,40,26.80
2012,08,15,12,41,26.80
2012,08,15,12,42,26.80
2012,08,15,12,43,26.80
2012,08,15,12,44,26.80
2012,08,15,12,45,26.90
2012,08,15,12,46,26.90
2012,08,15,12,47,26.90
2012,08,15,12,48,26.90
2012,08,15,12,49,26.90
2012,08,15,12,50,26.90
2012,08,15,12,51,26.90
2012,08,15,12,52,26.90
2012,08,15,12,53,26.90
2012,08,15,12,54,26.90
2012,08,15,12,55,26.90
2012,08,15,12,56,26.90
2012,08,15,12,57,27.00
2012,08,15,12,58,27.10
2012,08,15,12,59,27.20
2012,08,15,13,00,27.30
2012,08,15,13,01,27.40
2012,08,15,13,02,27.40
2012,08,15,13,03,27.40
2012,08,15,13,04,27.40
2012,08,15,13,05,27.30
2012,08,15,13,06,27.40
2012,08,15,13,07,27.40
2012,08,15,13,08,27.40
2012,08,15,13,09,27.40
2012,08,15,13,10,27.50
2012,08,15,13,11,27.50
2012,08,15,13,12,27.50
2012,08,15,13,13,27.60
2012,08,15,13,14,27.60
2012,08,15,13,15,27.60
2012,08,15,13,16,27.50
2012,08,15,13,17,27.50
2012,08,15,13,18,27.50
2012,08,15,13,19,27.40
2012,08,15,13,20,27.40
2012,08,15,13,21,27.50
2012,08,15,13,22,27.50
2012,08,15,13,23,27.50
2012,08,15,13,24,27.50
2012,08,15,13,25,27.60
2012,08,15,13,26,27.60
2012,08,15,13,27,27.60
2012,08,15,13,28,27.60
2012,08,15,13,29,27.60
2012,08,15,13,30,27.70
2012,08,15,13,31,27.70
2012,08,15,13,32,27.70
2012,08,15,13,33,27.70
2012,08,15,13,34,27.70
2012,08,15,13,35,27.80
2012,08,15,13,36,27.80
2012,08,15,13,37,27.70
2012,08,15,13,38,27.80
2012,08,15,13,39,27.80
2012,08,15,13,40,27.80
2012,08,15,13,41,27.90
2012,08,15,13,42,27.90
2012,08,15,13,43,27.90
2012,08,15,13,44,27.90
2012,08,15,13,45,27.90
2012,08,15,13,46,27.90
2012,08,15,13,47,27.80
2012,08,15,13,48,27.80
2012,08,15,13,49,27.90
2012,08,15,13,50,27.90
2012,08,15,13,51,27.90
2012,08,15,13,52,28.00
2012,08,15,13,53,28.00
2012,08,15,13,54,28.00
2012,08,15,13,55,28.10
2012,08,15,13,56,28.10
2012,08,15,13,57,28.00
2012,08,15,13,58,28.00
2012,08,15,13,59,28.10
2012,08,15,14,00,28.10
2012,08,15,14,01,28.10
2012,08,15,14,02,28.20
2012,08,15,14,03,28.20
2012,08,15,14,04,28.20
2012,08,15,14,05,28.20
2012,08,15,14,06,28.20
2012,08,15,14,07,28.20
2012,08,15,14,08,28.20
2012,08,15,14,09,28.10
2012,08,15,14,10,28.10
2012,08,15,14,11,28.10
2012,08,15,14,12,28.10
2012,08,15,14,13,28.10
2012,08,15,14,14,28.10
2012,08,15,14,15,28.10
2012,08,15,14,16,28.20
2012,08,15,14,17,28.20
2012,08,15,14,18,28.20
2012,08,15,14,19,28.20
2012,08,15,14,20,28.20
2012,08,15,14,21,28.20
2012,08,15,14,22,28.20
2012,08,15,14,23,28.20
2012,08,15,14,24,28.20
2012,08,15,14,25,28.20
2012,08,15,14,26,28.30
2012,08,15,14,27,28.30
2012,08,15,14,28,28.40
2012,08,15,14,29,28.40
2012,08,15,14,30,28.40
2012,08,15,14,31,28.40
2012,08,15,14,32,28.50
2012,08,15,14,33,28.60
2012,08,15,14,34,28.70
2012,08,15,14,35,28.70
2012,08,15,14,36,28.70
2012,08,15,14,37,28.70
2012,08,15,14,38,28.70
2012,08,15,14,39,28.80
2012,08,15,14,40,28.80
2012,08,15,14,41,28.90
2012,08,15,14,42,28.90
2012,08,15,14,43,29.00
2012,08,15,14,44,29.10
2012,08,15,14,45,29.10
2012,08,15,14,46,29.10
2012,08,15,14,47,29.10
2012,08,15,14,48,29.10
2012,08,15,14,49,29.10
2012,08,15,14,50,29.20
2012,08,15,14,51,29.20
2012,08,15,14,52,29.20
2012,08,15,14,53,29.20
2012,08,15,14,54,29.20
2012,08,15,14,55,29.20
2012,08,15,14,56,29.20
2012,08,15,14,57,29.20
2012,08,15,14,58,29.20
2012,08,15,14,59,29.20
2012,08,15,15,00,29.30
2012,08,15,15,01,29.30
2012,08,15,15,02,29.30
2012,08,15,15,03,29.30
2012,08,15,15,04,29.30
2012,08,15,15,05,29.30
2012,08,15,15,06,29.20
2012,08,15,15,07,29.20
2012,08,15,15,08,29.10
2012,08,15,15,09,29.00
2012,08,15,15,10,28.90
2012,08,15,15,11,28.80
2012,08,15,15,12,28.70
2012,08,15,15,13,28.60
2012,08,15,15,14,28.60
2012,08,15,15,15,28.60
2012,08,15,15,16,28.60
2012,08,15,15,17,28.70
2012,08,15,15,18,28.70
2012,08,15,15,19,28.60
2012,08,15,15,20,28.60
2012,08,15,15,21,28.60
2012,08,15,15,22,28.70
2012,08,15,15,23,28.60
2012,08,15,15,24,28.60
2012,08,15,15,25,28.70
2012,08,15,15,26,28.70
2012,08,15,15,27,28.70
2012,08,15,15,28,28.80
2012,08,15,15,29,28.80
2012,08,15,15,30,28.70
2012,08,15,15,31,28.70
2012,08,15,15,32,28.70
2012,08,15,15,33,28.80
2012,08,15,15,34,28.90
2012,08,15,15,35,29.00
2012,08,15,15,36,29.10
2012,08,15,15,37,29.20
2012,08,15,15,38,29.30
2012,08,15,15,39,29.30
2012,08,15,15,40,29.20
2012,08,15,15,41,29.20
2012,08,15,15,42,29.20
2012,08,15,15,43,29.10
2012,08,15,15,44,29.00
2012,08,15,15,45,28.90
2012,08,15,15,46,28.70
2012,08,15,15,47,28.50
2012,08,15,15,48,28.40
2012,08,15,15,49,28.40
2012,08,15,15,50,28.30
2012,08,15,15,51,28.30
2012,08,15,15,52,28.30
2012,08,15,15,53,28.30
2012,08,15,15,54,28.30
2012,08,15,15,55,28.30
2012,08,15,15,56,28.40
2012,08,15,15,57,28.40
2012,08,15,15,58,28.50
2012,08,15,15,59,28.60
2012,08,15,16,00,28.70
2012,08,15,16,01,28.70
2012,08,15,16,02,28.80
2012,08,15,16,03,28.90
2012,08,15,16,04,29.00
2012,08,15,16,05,29.00
2012,08,15,16,06,29.10
2012,08,15,16,07,29.10
2012,08,15,16,08,29.20
2012,08,15,16,09,29.30
2012,08,15,16,10,29.30
2012,08,15,16,11,29.40
2012,08,15,16,12,29.40
2012,08,15,16,13,29.40
2012,08,15,16,14,29.40
2012,08,15,16,15,29.40
2012,08,15,16,16,29.40
2012,08,15,16,17,29.40
2012,08,15,16,18,29.40
2012,08,15,16,19,29.40
2012,08,15,16,20,29.50
2012,08,15,16,21,29.50
2012,08,15,16,22,29.50
2012,08,15,16,23,29.50
2012,08,15,16,24,29.50
2012,08,15,16,25,29.50
2012,08,15,16,26,29.40
2012,08,15,16,27,29.50
2012,08,15,16,28,29.60
2012,08,15,16,29,29.60
2012,08,15,16,30,29.60
2012,08,15,16,31,29.60
2012,08,15,16,32,29.50
2012,08,15,16,33,29.40
2012,08,15,16,34,29.30
2012,08,15,16,35,29.30
2012,08,15,16,36,29.30
2012,08,15,16,37,29.30
2012,08,15,16,38,29.20
2012,08,15,16,39,29.10
2012,08,15,16,40,28.90
2012,08,15,16,41,28.80
2012,08,15,16,42,28.70
2012,08,15,16,43,28.70
2012,08,15,16,44,28.70
2012,08,15,16,45,28.60
2012,08,15,16,46,28.60
2012,08,15,16,47,28.60
2012,08,15,16,48,28.70
2012,08,15,16,49,28.70
2012,08,15,16,50,28.80
2012,08,15,16,51,28.70
2012,08,15,16,52,28.60
2012,08,15,16,53,28.50
2012,08,15,16,54,28.40
2012,08,15,16,55,28.40
2012,08,15,16,56,28.50
2012,08,15,16,57,28.50
2012,08,15,16,58,28.60
2012,08,15,16,59,28.70
2012,08,15,17,00,28.80
2012,08,15,17,01,28.90
2012,08,15,17,02,28.90
2012,08,15,17,03,29.00
2012,08,15,17,04,29.10
2012,08,15,17,05,29.10
2012,08,15,17,06,29.20
2012,08,15,17,07,29.20
2012,08,15,17,08,29.20
2012,08,15,17,09,29.10
2012,08,15,17,10,28.90
2012,08,15,17,11,28.80
2012,08,15,17,12,28.70
2012,08,15,17,13,28.70
2012,08,15,17,14,28.70
2012,08,15,17,15,28.70
2012,08,15,17,16,28.80
2012,08,15,17,17,28.80
2012,08,15,17,18,28.80
2012,08,15,17,19,28.80